Weather History for Spirit of St Louis, MO

Change the Weather History Date:

Tuesday, November 27, 2012

  Actual Average Record
Temperature  
Mean Temperature 31 °F -  
Max Temperature 41 °F 49 °F 71 °F (1998)
Min Temperature 21 °F 31 °F 16 °F (2013)
Degree Days  
Heating Degree Days 34    
Moisture  
Dew Point 17 °F    
Average Humidity 65    
Maximum Humidity 85    
Minimum Humidity 41    
Precipitation  
Precipitation 0.00 in - - ()
Sea Level Pressure  
Sea Level Pressure 30.41 in    
Wind  
Wind Speed 2 mph (NW)    
Max Wind Speed 7 mph    
Max Gust Speed -    
Visibility 10 miles    
Events      
Averages and records for this station are not official NWS values.
T = Trace of Precipitation, MM = Missing Value Source: NWS Daily Summary

Daily Weather History Graph

Daily Weather History Graph

Search for Another Location

Airport:

Trip Planner

Search our weather history database for the weather conditions in past years. The results will help you decide how hot, cold, wet, or windy it might be!

Date:

Astronomy

Nov. 27, 2012 Rise Set
Actual Time 6:58 AM CST 4:42 PM CST
Civil Twilight 6:28 AM CST 5:11 PM CST
Nautical Twilight 5:56 AM CST 5:44 PM CST
Astronomical Twilight 5:24 AM CST 6:16 PM CST
Moon 4:13 PM CST (11/27) 6:03 AM CST (11/27)
Length of Visible Light 10h 42m
Length of Day
9h 44m
Waxing Gibbous, 99% of the Moon is Illuminated
Nov 27
Waxing Gibbous
Nov 28
Full
Dec 6
Last Quarter
Dec 13
New
Dec 19
First Quarter

Hourly Weather History & Observations

Time (CST) Temp. Windchill Dew Point Humidity Pressure Visibility Wind Dir Wind Speed Gust Speed Precip Events Conditions
12:54 AM 28.0 °F 20.8 °F 17.1 °F 63% 30.42 in 10.0 mi NNW 6.9 mph - N/A   Clear
1:54 AM 27.0 °F 19.5 °F 16.0 °F 63% 30.42 in 10.0 mi NNW 6.9 mph - N/A   Clear
2:54 AM 25.0 °F - 15.1 °F 66% 30.41 in 10.0 mi Calm Calm - N/A   Clear
3:54 AM 23.0 °F - 14.0 °F 68% 30.41 in 10.0 mi Calm Calm - N/A   Clear
4:54 AM 21.9 °F - 14.0 °F 72% 30.43 in 10.0 mi Calm Calm - N/A   Clear
5:54 AM 21.0 °F - 14.0 °F 74% 30.45 in 10.0 mi Calm Calm - N/A   Clear
6:54 AM 21.0 °F - 12.9 °F 71% 30.46 in 10.0 mi Calm Calm - N/A   Clear
7:54 AM 23.0 °F - 16.0 °F 74% 30.48 in 10.0 mi Calm Calm - N/A   Clear
8:54 AM 26.1 °F - 16.0 °F 66% 30.49 in 10.0 mi Calm Calm - N/A   Clear
9:54 AM 28.9 °F - 17.1 °F 61% 30.50 in 10.0 mi Calm Calm - N/A   Clear
10:54 AM 32.0 °F - 19.0 °F 59% 30.49 in 10.0 mi Calm Calm - N/A   Scattered Clouds
11:54 AM 35.1 °F - 19.0 °F 52% 30.45 in 10.0 mi Calm Calm - N/A   Clear
12:54 PM 37.9 °F - 19.9 °F 48% 30.42 in 10.0 mi Calm Calm - N/A   Mostly Cloudy
1:54 PM 39.9 °F - 19.0 °F 43% 30.38 in 10.0 mi Calm Calm - N/A   Scattered Clouds
2:54 PM 41.0 °F - 19.0 °F 41% 30.36 in 10.0 mi Calm Calm - N/A   Scattered Clouds
3:54 PM 39.9 °F 36.7 °F 19.0 °F 43% 30.36 in 10.0 mi West 4.6 mph - N/A   Scattered Clouds
4:54 PM 33.1 °F - 21.0 °F 61% 30.36 in 10.0 mi Calm Calm - N/A   Clear
6:54 PM 27.0 °F - 19.0 °F 72% 30.35 in 10.0 mi Calm Calm - N/A   Clear
7:54 PM 25.0 °F - 18.0 °F 75% 30.36 in 10.0 mi Calm Calm - N/A   Clear
8:54 PM 24.1 °F - 18.0 °F 77% 30.38 in 10.0 mi Calm Calm - N/A   Clear
9:54 PM 24.1 °F - 19.0 °F 81% 30.38 in 10.0 mi Calm Calm - N/A   Clear
10:54 PM 23.0 °F - 17.1 °F 78% 30.37 in 10.0 mi Calm Calm - N/A   Clear
11:54 PM 21.9 °F - 18.0 °F 85% 30.38 in 10.0 mi Calm Calm - N/A   Clear